Flag for Austria Weather past 2 weeks in Fürstenfeld, Styria, Austria

Now
71 °F

Mild.


Feels Like: 77 °F
Forecast: 48 / 59 °F
Wind: 5 mph from Southwest

Location: Murska Sobota

Current Time: Apr 27, 2015 at 5:43:36 PM

Latest Report: Apr 27, 2015 at 5:00 PM


Visibility: N/A

Pressure: 29.68 "Hg

Humidity: 46%

Dew point: 49 °F

Location of FürstenfeldLocation

Historic Weather in Fürstenfeld — Graph

°F

Fürstenfeld temperature yesterday

Maximum temperature yesterday: 74 °F (at 4:00 PM)
Minimum temperature yesterday: 52 °F (at 7:00 AM)
Average temperature yesterday: 64 °F

Past Weeks' High & Low Weather Summary

 TemperatureHumidityPressure
High78 °F (Apr 16, 2:00 PM)96% (Apr 25, 6:00 AM)30.44 "Hg (Apr 25, 6:00 AM)
Low31 °F (Apr 19, 6:00 AM)20% (Apr 21, 6:00 PM)29.68 "Hg (Apr 27, 4:00 PM)
Average57 °F58%30.06 "Hg
* Reported Apr 12 4:00 PM — Apr 27 4:00 PM, Fürstenfeld, Weather by CustomWeather, © 2015

Note: Actual official high and low records may vary slightly from our data, if they occured in-between our weather recording intervals... More about our weather records

Advertising

Fürstenfeld weather history for previous 24 hours

 ConditionsComfort  
Time TempWeatherWind HumidityBarometerVisibility
4:00 PM
Mon, Apr 27
72 °FMild.5 mph45%29.68 "HgN/A
2:00 PM70 °FPartly sunny.8 mph47%29.71 "Hg6 mi
1:00 PM71 °FMild.9 mph44%29.71 "HgN/A
12:00 PM70 °FMild.8 mph47%29.72 "HgN/A
11:00 AM68 °FMild.7 mph50%29.72 "HgN/A
10:00 AM66 °FMild.8 mph56%29.72 "HgN/A
9:00 AM63 °FMild.5 mph62%29.74 "HgN/A
8:00 AM60 °FPassing clouds.5 mph68%29.75 "Hg6 mi
7:00 AM59 °FScattered clouds.6 mph69%29.74 "Hg6 mi
6:00 AM58 °FCool.6 mph69%29.74 "HgN/A
5:00 AM58 °FCool.5 mph71%29.75 "HgN/A
4:00 AM57 °FCool.2 mph72%29.76 "HgN/A
3:00 AM58 °FCool.6 mph72%29.77 "HgN/A
2:00 AM56 °FCool.2 mph75%29.78 "HgN/A
1:00 AM58 °FCool.5 mph71%29.78 "HgN/A
12:00 AM58 °FCool.2 mph70%29.80 "HgN/A
11:00 PM
Sun, Apr 26
59 °FCool.2 mph66%29.80 "HgN/A
10:00 PM61 °FCool.2 mph62%29.80 "HgN/A
9:00 PM63 °FMild.2 mph56%29.80 "HgN/A
8:00 PM65 °FPassing clouds.3 mph51%29.79 "Hg6 mi
7:00 PM69 °FMild.7 mph45%29.78 "HgN/A
6:00 PM71 °FMild.6 mph43%29.77 "HgN/A
5:00 PM72 °FMild.3 mph42%29.78 "HgN/A
Weather by CustomWeather, © 2015

See weather overviewHow to use our weather pages